Regional Weather Roundup
Issued by NWS

Home | Current Version | Previous Version | Text Only | Print | Product List | Glossary Off
Versions: 1 2 3 4 5 6 7 8 9 10 11 12 13 14 15 16 17 18 19 20 21 22 23 24 25 26 27 28 29 30 31

000
ASUS45 KBOU 300107
RWRCO

WEATHER ROUNDUP FOR COLORADO
NATIONAL WEATHER SERVICE DENVER/BOULDER CO
700 PM MDT WED OCT 29 2014

NOTE: "FAIR" INDICATES FEW OR NO CLOUDS BELOW 12000 FEET WITH NO
SIGNIFICANT WEATHER AND/OR OBSTRUCTIONS TO VISIBILITY.

COZ001>005-013-030-031-300200-
...NORTHWEST COLORADO...

CITY           SKY/WX    TMP DP  RH WIND       PRES   REMARKS
CRAIG          CLEAR     43  22  43 CALM      30.28R
HAYDEN         CLEAR     48  19  32 W7        30.27R
MEEKER         CLEAR     44  26  49 CALM      30.28R
MOUNT WERNER   NOT AVBL
STEAMBOAT SPGS PTCLDY    49  19  29 CALM      30.29R
WALDEN         CLEAR     41  19  42 W12       30.30R
$$

COZ006>008-011-300200-
...WEST CENTRAL VALLEYS...

CITY           SKY/WX    TMP DP  RH WIND       PRES   REMARKS
GRAND JUNCTION CLEAR     45  22  40 CALM      30.25R
MONTROSE       CLEAR     52  18  26 NW5       30.29R
EAGLE          CLEAR     54  16  22 SW14      30.29R
RIFLE          CLEAR     57  17  21 W16       30.24R
DELTA          CLEAR     54  19  25 CALM      30.24R
NUCLA          CLEAR     59  12  15 CALM      30.31S
$$

COZ017>023-064>068-300200-
...SOUTHWEST COLORADO...

CITY           SKY/WX    TMP DP  RH WIND       PRES   REMARKS
DURANGO        CLEAR     53  16  23 SW8       30.27R
CORTEZ         CLEAR     50  15  24 CALM      30.27S
PAGOSA SPRINGS CLEAR     48  19  31 CALM      30.34R
TELLURIDE      CLEAR     48  14  25 CALM      30.43R
WOLF CREEK PAS CLEAR     34  14  44 SW15      30.52R WCI  24
$$

COZ009-010-012-014-032>034-037-058>063-300200-
...CENTRAL COLORADO...

CITY           SKY/WX    TMP DP  RH WIND       PRES   REMARKS
ASPEN          PTCLDY    37  20  50 SW5       30.33R
BUENA VISTA    CLEAR     48  10  21 W10       30.27R
COPPER MTN     CLEAR     34  10  37 W17       30.46R WCI  23
BERTHOUD PASS  FAIR      28  25  86 NW26G35   30.45R WCI  13
COTTONWOOD PAS CLEAR     50   1  13 W18G29    30.34F
GUNNISON       CLEAR     48   7  18 NW3       30.34R
KREMMLING      CLEAR     50  14  23 NW6         N/A
LEADVILLE      CLEAR     40  11  30 NW9       30.38R
MONARCH PASS   CLEAR     34   9  35 W33G46    30.56R WCI  19
SALIDA         CLEAR     57   9  15 W23       30.31R
SUNLIGHT       PTCLDY    36  19  51 CALM      30.45R
WILKERSON PASS NOT AVBL
$$

COZ069>075-300200-
...SAN LUIS VALLEY/SANGRE DE CRISTO MOUNTAINS...

CITY           SKY/WX    TMP DP  RH WIND       PRES   REMARKS
ALAMOSA        CLEAR     49  10  20 CALM      30.27R
LA VETA PASS   CLEAR     43   9  24 SW5       30.38R
SAGUACHE       CLEAR     50  10  20 W3        30.29S
$$

COZ035-036-038>040-300200-
...NORTHERN COLORADO FRONT RANGE...

CITY           SKY/WX    TMP DP  RH WIND       PRES   REMARKS
DENVER INTL AP PTCLDY    60  20  21 W6        30.12R
DMNS CITY PARK   N/A     62  17  17 NW7       30.12R
AURORA         PTCLDY    59  19  21 N14       30.14R
FRONT RANGE AP PTCLDY    57  21  24 NW8       30.14R
ERIE MUNI ARPT PTCLDY    51  21  30 CALM      30.11R
BOULDER MUN AP PTCLDY    63  19  19 NW14G21   30.12R
CENTENNIAL     PTCLDY    58  19  22 CALM      30.14R
BROOMFIELD     PTCLDY    57  19  23 W6        30.14R
FORT COLLINS   CLEAR     59  21  23 N16       30.13R
LONGMONT       CLEAR     58  24  26 NW9       30.14R
$$

COZ041-046-047-076>085-087-088-300200-
...PIKES PEAK/PALMER DIVIDE AND SOUTHERN FOOTHILLS...

CITY           SKY/WX    TMP DP  RH WIND       PRES   REMARKS
COLO. SPRINGS  PTCLDY    51  16  24 NE5       30.17R
A. F. ACADEMY  PTCLDY    48  18  30 N8        30.18R
ELLICOTT       PTCLDY    46  15  28 SE9       30.16R
FALCON         PTCLDY    50  14  23 N6        30.21R
FORT CARSON    CLEAR     56  17  22 W8        30.14R
LIMON          CLEAR     45  21  38 N6        30.13R
MONUMENT HILL  PTCLDY    50  16  25 CALM      30.21R
TRINIDAD       CLEAR     65  12  12 CALM      30.12R
$$

COZ042>045-048>051-090-091-300200-
...NORTHEAST COLORADO...

CITY           SKY/WX    TMP DP  RH WIND       PRES   REMARKS
GREELEY ARPT   CLEAR     55  19  24 N16       30.11R
AKRON          CLEAR     59  22  24 N16       30.10R
BURLINGTON     CLEAR     54  24  31 SW12      30.07R
WRAY           PTCLDY    55  17  22 NW13      30.03R
STERLING       CLEAR     63  30  29 NW14      30.06R
HOLYOKE        PTCLDY    54  25  32 W7        30.04R
FORT MORGAN    CLEAR     57  21  24 N14       30.10R
$$

COZ086-089-092>099-300200-
...SOUTHEAST COLORADO...

CITY           SKY/WX    TMP DP  RH WIND       PRES   REMARKS
PUEBLO         CLEAR     59  14  17 NE10      30.07R
LA JUNTA       CLEAR     55  21  26 NE9       30.06R
LAMAR          CLEAR     54  24  31 E7        30.04R
SPRINGFIELD      N/A     54  32  43 S13       30.08R
$$



USA.gov is the U.S. government's official web portal to all federal, state and local government web resources and services.